Powrót do katalogu

THORAD DELTA 1 DEB

AktywnyLEO
NORAD 8182·DEBRIS·🇺🇸 United States

Wystrzelony Nov 15, 1974 z Vandenberg Space Force Base

Loading…

Następne Przeloty (najbliższe 24 godziny)

TLE

ŚwieżeSource: Space-Track

Epoka: Sep 13, 2026, 03:08 UTC

1 08182U 74089AY  26256.13122911  .00001900  00000-0  79941-2 0  9990
2 08182 100.4017 324.9872 0133655 268.6566 119.9891 12.81952812377836

Śledź THORAD DELTA 1 DEB w czasie rzeczywistym z AllMySat

Download on the App Store